Weather History for Harlan, KY

Change the Weather History Date:

Tuesday, January 14, 2014

  Actual Average (KLOZ) Record (KLOZ)
Temperature  
Mean Temperature 43 °F 35 °F  
Max Temperature 51 °F 44 °F 69 °F (2007)
Min Temperature 35 °F 26 °F 4 °F (1963)
Degree Days  
Heating Degree Days 22 30  
Month to date heating degree days 416  
Since 1 July heating degree days 2068  
Cooling Degree Days 0 0  
Month to date cooling degree days 0  
Year to date cooling degree days 0  
Moisture  
Dew Point 35 °F    
Average Humidity 76    
Maximum Humidity 100    
Minimum Humidity 37    
Precipitation  
Precipitation 0.00 in 0.11 in 0.97 in (1995)
Month to date precipitation 1.60  
Year to date precipitation 1.60  
Sea Level Pressure  
Sea Level Pressure 29.87 in    
Wind  
Wind Speed 3 mph (West)    
Max Wind Speed 13 mph    
Max Gust Speed 22 mph    
Visibility 9 miles    
Events      
T = Trace of Precipitation, MM = Missing Value Source: NWS Daily Summary

Daily Weather History Graph

Daily Weather History Graph

Search for Another Location

Airport:

Trip Planner

Search our weather history database for the weather conditions in past years. The results will help you decide how hot, cold, wet, or windy it might be!

Date:

Astronomy

Jan. 14, 2014 Rise Set
Actual Time 7:45 AM EST 5:39 PM EST
Civil Twilight 7:17 AM EST 6:08 PM EST
Nautical Twilight 6:45 AM EST 6:39 PM EST
Astronomical Twilight 6:14 AM EST 7:11 PM EST
Moon 4:43 PM EST (1/14) 6:20 AM EST (1/14)
Length of Visible Light 10h 50m
Length of Day
9h 54m
Waxing Gibbous, 98% of the Moon is Illuminated
Jan 14
Waxing Gibbous
Jan 15
Full
Jan 24
Last Quarter
Jan 30
New
Feb 6
First Quarter

Hourly Weather History & Observations

Time (EST) Temp. Windchill Dew Point Humidity Pressure Visibility Wind Dir Wind Speed Gust Speed Precip Events Conditions
12:15 AM 42.8 °F 41.1 °F 41.0 °F 93% 29.82 in 7.0 mi East 3.5 mph - N/A   Overcast
12:35 AM 42.8 °F 39.3 °F 41.0 °F 93% 29.81 in 10.0 mi ENE 5.8 mph - N/A   Overcast
12:55 AM 42.8 °F 40.1 °F 41.0 °F 93% 29.80 in 10.0 mi East 4.6 mph - N/A   Overcast
1:15 AM 42.8 °F 40.1 °F 41.0 °F 93% 29.79 in 4.0 mi East 4.6 mph - N/A   Overcast
1:35 AM 42.8 °F 41.1 °F 41.0 °F 93% 29.78 in 7.0 mi ENE 3.5 mph - N/A   Overcast
1:55 AM 42.8 °F - 41.0 °F 93% 29.78 in 10.0 mi Calm Calm - N/A   Overcast
2:15 AM 42.8 °F - 41.0 °F 93% 29.78 in 4.0 mi Calm Calm - N/A   Overcast
2:35 AM 42.8 °F 41.1 °F 41.0 °F 93% 29.79 in 4.0 mi NNE 3.5 mph - N/A   Overcast
2:55 AM 42.8 °F - 41.0 °F 93% 29.80 in 3.0 mi Calm Calm - N/A   Overcast
3:15 AM 42.8 °F - 41.0 °F 93% 29.80 in 1.5 mi Calm Calm - N/A   Overcast
3:35 AM 42.8 °F - 41.0 °F 93% 29.79 in 5.0 mi Calm Calm - N/A   Overcast
3:55 AM 42.8 °F 41.1 °F 41.0 °F 93% 29.79 in 1.8 mi WNW 3.5 mph - N/A   Overcast
4:15 AM 42.8 °F 40.1 °F 42.8 °F 100% 29.80 in 7.0 mi West 4.6 mph - N/A   Overcast
4:35 AM 42.8 °F 40.1 °F 42.8 °F 100% 29.81 in 5.0 mi WSW 4.6 mph - N/A   Overcast
4:55 AM 42.8 °F 38.0 °F 42.8 °F 100% 29.80 in 7.0 mi NW 8.1 mph - N/A   Overcast
5:15 AM 44.6 °F 42.2 °F 41.0 °F 87% 29.81 in 10.0 mi WSW 4.6 mph - N/A   Overcast
5:35 AM 42.8 °F 41.1 °F 41.0 °F 93% 29.82 in 10.0 mi West 3.5 mph - N/A   Overcast
5:55 AM 42.8 °F 41.1 °F 41.0 °F 93% 29.80 in 10.0 mi NNW 3.5 mph - N/A   Overcast
6:15 AM 42.8 °F - 41.0 °F 93% 29.80 in 7.0 mi Calm Calm - N/A   Overcast
6:35 AM 42.8 °F 41.1 °F 41.0 °F 93% 29.84 in 10.0 mi SSE 3.5 mph - N/A   Overcast
6:55 AM 41.0 °F 36.4 °F 41.0 °F 100% 29.84 in 4.0 mi West 6.9 mph - N/A   Overcast
7:15 AM 41.0 °F 37.1 °F 41.0 °F 100% 29.84 in 10.0 mi NNW 5.8 mph - N/A   Overcast
7:35 AM 41.0 °F 38.0 °F 41.0 °F 100% 29.87 in 7.0 mi West 4.6 mph - N/A   Overcast
7:55 AM 41.0 °F - 39.2 °F 93% 29.87 in 10.0 mi Calm Calm - N/A   Overcast
8:15 AM 41.0 °F - 39.2 °F 93% 29.87 in 10.0 mi Calm Calm - N/A   Mostly Cloudy
8:35 AM 41.0 °F - 37.4 °F 87% 29.87 in 10.0 mi Calm Calm - N/A   Scattered Clouds
8:55 AM 41.0 °F 37.1 °F 39.2 °F 93% 29.90 in 1.8 mi North 5.8 mph - N/A   Overcast
9:15 AM 41.0 °F 37.1 °F 41.0 °F 100% 29.90 in 10.0 mi North 5.8 mph - N/A   Mostly Cloudy
9:35 AM 41.0 °F - 41.0 °F 100% 29.90 in 10.0 mi Calm Calm - N/A   Mostly Cloudy
9:55 AM 42.8 °F - 41.0 °F 93% 29.89 in 10.0 mi Calm Calm - N/A   Scattered Clouds
10:15 AM 44.6 °F - 41.0 °F 87% 29.89 in 10.0 mi Calm Calm - N/A   Scattered Clouds
10:35 AM 44.6 °F 43.1 °F 41.0 °F 87% 29.90 in 10.0 mi South 3.5 mph - N/A   Mostly Cloudy
10:55 AM 46.4 °F 45.2 °F 41.0 °F 81% 29.90 in 10.0 mi SSW 3.5 mph - N/A   Mostly Cloudy
11:15 AM 48.2 °F - 37.4 °F 66% 29.90 in 10.0 mi West 6.9 mph - N/A   Scattered Clouds
11:35 AM 48.2 °F - 37.4 °F 66% 29.90 in 10.0 mi WNW 8.1 mph - N/A   Mostly Cloudy
11:55 AM 50.0 °F - 35.6 °F 58% 29.90 in 10.0 mi WSW 4.6 mph 16.1 mph N/A   Mostly Cloudy
12:15 PM 51.8 °F - 35.6 °F 54% 29.90 in 10.0 mi West 9.2 mph - N/A   Mostly Cloudy
12:35 PM 50.0 °F - 33.8 °F 54% 29.91 in 10.0 mi West 12.7 mph 21.9 mph N/A   Mostly Cloudy
12:55 PM 50.0 °F - 32.0 °F 50% 29.89 in 10.0 mi WNW 10.4 mph 19.6 mph N/A   Mostly Cloudy
1:15 PM 50.0 °F - 32.0 °F 50% 29.89 in 10.0 mi West 10.4 mph - N/A   Scattered Clouds
1:35 PM 50.0 °F - 28.4 °F 43% 29.88 in 10.0 mi WSW 6.9 mph 17.3 mph N/A   Scattered Clouds
1:55 PM 51.8 °F - 30.2 °F 44% 29.88 in 10.0 mi WSW 10.4 mph - N/A   Scattered Clouds
2:15 PM 51.8 °F - 30.2 °F 44% 29.87 in 10.0 mi South 5.8 mph - N/A   Scattered Clouds
2:35 PM 51.8 °F - 30.2 °F 44% 29.87 in 10.0 mi SW 5.8 mph - N/A   Clear
2:55 PM 51.8 °F - 28.4 °F 41% 29.87 in 10.0 mi West 6.9 mph - N/A   Clear
3:15 PM 51.8 °F - 28.4 °F 41% 29.87 in 10.0 mi WSW 5.8 mph - N/A   Clear
3:35 PM 51.8 °F - 28.4 °F 41% 29.88 in 10.0 mi SSW 4.6 mph - N/A   Clear
3:55 PM 51.8 °F - 26.6 °F 38% 29.88 in 10.0 mi West 6.9 mph - N/A   Clear
4:15 PM 51.8 °F - 26.6 °F 38% 29.88 in 10.0 mi WSW 6.9 mph - N/A   Clear
4:35 PM 51.8 °F - 26.6 °F 38% 29.88 in 10.0 mi WSW 6.9 mph - N/A   Clear
4:55 PM 50.0 °F - 24.8 °F 37% 29.87 in 10.0 mi Calm Calm - N/A   Clear
5:15 PM 50.0 °F - 24.8 °F 37% 29.87 in 10.0 mi SW 3.5 mph - N/A   Clear
5:35 PM 48.2 °F - 26.6 °F 43% 29.89 in 10.0 mi Calm Calm - N/A   Clear
5:55 PM 44.6 °F - 28.4 °F 53% 29.89 in 10.0 mi Calm Calm - N/A   Clear
6:15 PM 44.6 °F - 28.4 °F 53% 29.90 in 10.0 mi Calm Calm - N/A   Clear
6:35 PM 42.8 °F 41.1 °F 28.4 °F 57% 29.91 in 10.0 mi North 3.5 mph - N/A   Clear
6:55 PM 41.0 °F - 30.2 °F 65% 29.91 in 10.0 mi Calm Calm - N/A   Clear
7:15 PM 41.0 °F - 32.0 °F 70% 29.91 in 10.0 mi Calm Calm - N/A   Clear
7:35 PM 41.0 °F - 30.2 °F 65% 29.91 in 10.0 mi Calm Calm - N/A   Clear
7:55 PM 37.4 °F 34.9 °F 32.0 °F 81% 29.91 in 10.0 mi NNE 3.5 mph - N/A   Clear
8:15 PM 37.4 °F - 32.0 °F 81% 29.92 in 10.0 mi Calm Calm - N/A   Clear
8:35 PM 37.4 °F - 32.0 °F 81% 29.93 in 10.0 mi Calm Calm - N/A   Clear
8:55 PM 35.6 °F - 32.0 °F 87% 29.93 in 10.0 mi Calm Calm - N/A   Clear
9:15 PM 35.6 °F - 32.0 °F 87% 29.93 in 10.0 mi Calm Calm - N/A   Clear
9:35 PM 35.6 °F - 32.0 °F 87% 29.93 in 10.0 mi Calm Calm - N/A   Clear
9:55 PM 35.6 °F - 32.0 °F 87% 29.93 in 10.0 mi Calm Calm - N/A   Scattered Clouds
10:15 PM 37.4 °F - 32.0 °F 81% 29.93 in 10.0 mi Calm Calm - N/A   Mostly Cloudy
10:35 PM 35.6 °F - 32.0 °F 87% 29.92 in 10.0 mi Calm Calm - N/A   Mostly Cloudy
10:55 PM 35.6 °F - 32.0 °F 87% 29.91 in 10.0 mi Calm Calm - N/A   Mostly Cloudy
11:15 PM 37.4 °F - 30.2 °F 75% 29.91 in 10.0 mi Calm Calm - N/A   Overcast
11:35 PM 35.6 °F - 32.0 °F 87% 29.90 in 10.0 mi Calm Calm - N/A   Overcast
11:55 PM 41.0 °F - 30.2 °F 65% 29.90 in 10.0 mi Calm Calm - N/A   Overcast